STARLINK-37595, 69847

Orbit data source: Space-Track

STARLINK-37595, 69847 is a payload satellite owned by SpaceX/Seattle (US) in LEO that was launched on Sun, 05 Jul 2026 UTC via an FALCON 9 launch vehicle from the Air Force Eastern Test Range (AFETR). Payload-class satellites include a variety of spacecraft equipped with specific instruments for various scientific and technological missions. These include communications satellites like Starlink; space stations such as the ISS; scientific satellites like the Hubble; Earth observation satellites from companies like Planet Labs, Umbra, and HawkEye 360; GPS; miniature CubeSats for education and research; and military/defense satellites.

Loading next visibility...
Identifier
69847, 2026-154AE
Orbit
LEO
Country
Flag of USUS
Related business
Manufacturer
SpaceX/Seattle
Mission
Operational spacecraft
Bus & Motor
STARLINK V2MO, Unknown motor
Mass
575 kg wet, ~530 kg dry
Launch date (UTC)
2026-07-05 (2 months ago)
Launch vehicle
FALCON 9
Launch site
Air Force Eastern Test Range (AFETR)
Object type
Payload
Rocket body
Debris
Shape & HBR
BOX + PAN, 17.7 m
Radar Cross Section
Large (>1 m²)

Expand to show TLE details & history
Last TLE update: 16 hours ago

TLE from 16 hours ago
0 STARLINK-37595
1 69847U 26154AE  26236.26704677  .00165091  00000-0  45959-2 0  9996
2 69847  53.1592  99.2673 0000319  11.3831 348.7179 15.35703879  9058
Epoch: 2026-08-24T06:24Z
TLE epoch observation values (Epoch: 2026-08-24T06:24:32.840Z)
Latitude
-0.00007°
Longitude
30.57921°
Altitude
459.518 km
Speed
7.638 km/s
True Right ascension
06h 37m 04s
True Declination
0° 00' 00"
Sunlit
Object was in daylight at epoch
Visualization orbit readout
Latitude
Unknown
Longitude
Unknown
Altitude
Unknown
Speed
Unknown
Apparent Right ascension
Unknown
Apparent Declination
Unknown
Sunlit
N/A
Visualization observer readout
Local Sidereal Time
13:46:39
Azimuth
Unknown
Elevation
Unknown
Doppler factor
Unknown
Orbital elements
Apogee altitude
459.306 km
Perigee altitude
458.87 km
Semi-major axis
6,837.225 km
Eccentricity
0.00003
Inclination
53.1592°
RAAN
99.2673°
Arg. of periapsis
11.3831°
True anomaly
348.71718°
Mean anomaly
348.7179°
Eccentric anomaly
348.71754°
Mean motion
3.83905 °/min
Orbital period
93.77 mins
BSTAR
0.0045959
Loading maneuver chart data...
Computing Atmospheric mass density...
Loading historical data...
Loading historical data...
Loading historical data...
Loading historical data...
Loading historical data...
Loading historical data...
Loading historical data...

Documentation

Showing up to 5 results
|